EHI
0 1 3 3 1 0 0 0 0 0 0 0 0 0 0 0 0 0 0 0 0 0 0 0 0 0 0 0 0 0 0 0 0 0 0 0 0 0 0 0 0 0 0
1 1 3 3 1 0 0 0 0 0 0 0 0 0 0 0 0 0 0 0 0 0 0 0 0 0 0 0 0 0 0 0 0 0 0 0 0 0 0 0 0 0 0
2 2 3 3 1 0 1 0 0 0 0 0 0 0 0 0 0 0 0 0 0 0 0 0 0 0 0 0 0 0 0 0 0 0 0 0 0 0 0 0 0 0 0
4 3 2 3 2 1 2 1 0 0 0 0 0 0 0 0 0 0 0 0 0 0 0 0 0 0 0 0 0 0 0 0 0 0 0 0 0 0 0 0 0 0 0
5 3 3 3 3 3 3 2 1 0 0 0 0 0 0 0 0 0 0 0 0 0 0 0 0 0 0 0 0 0 0 0 0 0 0 0 0 0 0 0 0 0 0
5 4 4 5 5 4 4 3 1 0 0 0 0 0 0 0 0 0 0 0 0 0 0 0 0 0 0 0 0 0 0 0 0 0 0 0 0 0 0 0 0 0 0
4 4 5 5 5 5 3 2 1 0 0 0 0 0 0 0 0 0 0 0 0 0 0 0 0 0 0 0 0 0 0 0 0 0 0 0 0 0 0 0 0 0 0
2 3 4 4 5 4 3 1 0 0 0 1 1 0 0 0 0 0 0 0 0 0 0 0 0 0 0 0 0 0 0 0 0 0 0 0 0 0 0 0 0 0 0
1 1 3 3 4 3 1 0 0 0 0 1 1 0 0 0 0 0 0 0 0 0 0 0 0 0 0 0 0 0 0 0 0 0 0 0 0 0 0 0 0 0 0
0 1 2 3 3 3 1 0 0 0 0 1 1 0 0 0 0 0 0 0 0 0 0 0 0 0 0 0 0 0 0 0 0 0 0 0 0 0 0 0 0 0 0
0 1 2 3 3 3 2 1 0 0 0 0 0 0 0 0 0 0 0 0 0 0 0 0 0 0 0 0 0 0 0 0 0 0 0 0 0 0 0 0 0 0 0
1 1 2 3 3 3 3 1 0 0 0 0 0 0 0 0 0 0 0 0 0 0 0 0 0 0 0 0 0 0 0 0 0 0 0 0 0 0 0 0 0 0 0
3 2 3 3 3 3 2 0 0 0 0 0 0 0 0 0 0 0 0 0 0 0 0 0 0 0 0 0 0 0 0 0 0 0 0 0 0 0 0 0 0 0 0
5 4 3 2 2 2 1 0 0 0 0 0 0 0 0 0 0 0 0 0 0 0 0 0 0 0 0 0 0 0 0 0 0 0 0 0 0 0 0 0 0 0 0
5 4 2 1 1 1 0 0 0 0 0 0 0 0 0 0 0 0 0 0 0 0 0 0 0 0 0 0 0 0 0 0 0 0 0 0 0 0 0 0 0 0 0
3 2 1 0 0 0 0 0 0 0 0 0 0 0 0 0 0 0 0 0 0 0 0 0 0 0 0 0 0 0 0 0 0 0 0 0 0 0 0 0 0 0 0
1 1 0 0 0 0 0 0 0 0 0 0 0 0 0 0 0 0 0 0 0 0 0 0 0 0 0 0 0 0 0 0 0 0 0 0 0 0 0 0 0 0 0
0 0 0 0 0 0 0 0 0 0 0 0 0 0 0 0 0 0 0 0 0 0 0 0 0 0 0 0 0 0 0 0 0 0 0 0 0 0 0 0 0 0 0
0 0 0 0 0 0 0 0 0 0 0 0 0 0 0 0 0 0 0 0 0 0 0 0 0 0 0 0 0 0 0 0 0 0 0 0 0 0 0 0 0 0 0
0 0 0 0 0 0 0 0 0 0 0 0 0 0 0 0 0 0 0 0 0 0 0 0 0 0 0 0 0 0 0 0 0 0 0 0 0 0 0 0 0 0 0
0 0 0 0 0 0 0 0 0 0 0 0 0 0 0 0 0 0 0 0 0 0 0 0 0 0 0 0 0 0 0 0 0 0 0 0 0 0 0 0 0 0 0
0 0 0 0 0 0 0 0 0 0 0 0 0 0 0 0 0 0 0 0 0 0 0 0 0 0 0 0 0 0 0 0 0 0 0 0 0 0 0 0 0 0 0
0 0 0 0 0 0 0 0 0 0 0 0 0 0 0 0 0 0 0 0 0 0 0 0 0 0 0 0 0 0 0 0 0 0 0 0 0 0 0 0 0 0 0
0 0 0 0 0 0 0 0 0 0 0 0 0 0 0 0 0 0 0 0 0 0 0 0 0 0 0 0 0 0 0 0 0 0 0 0 0 0 0 0 0 0 0
0 0 0 0 0 0 0 0 0 0 0 0 0 0 0 0 0 0 0 0 0 0 0 0 0 0 0 0 0 0 0 0 0 0 0 0 0 0 0 0 0 0 0
0 0 0 0 0 0 0 0 0 0 0 0 0 0 0 0 0 0 0 0 0 0 0 0 0 0 0 0 0 0 0 0 0 0 0 0 0 0 0 0 0 0 0
Wind_Speed
6 5 5 4 4 4 3 3 3 3 3 3 3 4 4 3 3 3 2 2 3 2 2 3 3 3 2 2 3 3 3 2 2 1 2 2 3 3 2 2 1 2 3
5 5 5 4 4 4 3 4 3 3 2 3 3 4 4 3 3 3 2 2 2 2 2 2 2 2 2 2 2 3 2 2 2 2 1 2 2 2 2 2 2 2 2
5 6 5 5 5 4 4 3 3 3 3 3 3 3 3 3 2 2 2 2 2 2 3 3 3 2 2 2 2 2 2 2 2 2 1 1 2 2 2 3 3 2 1
6 5 5 5 5 4 4 3 3 3 3 3 3 3 3 3 3 2 2 2 3 3 3 3 4 4 3 3 3 3 3 2 2 2 1 1 1 2 2 2 2 2 2
7 5 5 5 5 5 4 3 3 2 3 3 3 3 3 3 3 3 2 2 2 2 2 3 4 5 7 5 4 3 3 2 2 1 1 1 1 2 2 1 2 2 2
7 6 5 5 5 5 4 4 3 3 3 4 4 4 3 3 6 7 4 2 2 2 2 3 3 4 6 6 6 5 4 2 1 1 1 1 1 1 1 1 1 2 2
7 7 6 6 6 5 5 4 4 3 3 4 3 4 4 4 5 5 5 3 2 2 1 2 2 3 4 2 3 4 4 4 2 1 1 1 1 1 1 2 2 1 2
7 7 7 6 6 5 5 5 4 4 3 3 4 4 4 3 4 3 4 2 1 2 2 2 2 3 3 3 1 2 2 3 2 1 1 0 1 1 1 1 2 2 2
6 7 7 7 6 6 6 5 4 4 3 3 4 4 4 3 3 2 2 1 1 1 2 3 3 3 4 5 3 2 2 2 3 4 2 1 2 3 3 2 2 2 3
6 6 7 7 7 6 6 5 4 4 3 3 3 3 4 3 3 2 1 0 1 1 1 3 5 4 4 5 2 2 2 2 2 1 2 2 2 2 3 1 0 1 2
5 5 6 6 6 6 5 5 5 4 4 3 4 3 4 4 4 3 2 1 1 1 1 1 2 4 4 4 3 1 1 2 1 1 1 1 1 1 2 2 1 0 1
6 5 5 5 5 5 6 5 4 4 4 4 3 3 3 3 4 3 2 1 2 1 1 1 2 2 2 2 2 2 3 3 1 1 1 1 1 2 2 2 2 2 1
7 6 5 6 5 5 5 5 4 3 3 3 3 3 3 3 2 4 3 1 1 1 1 2 1 0 0 1 1 2 2 1 1 1 1 1 1 1 2 2 3 2 3
7 6 5 5 5 5 4 4 4 3 3 2 2 2 2 3 2 2 1 1 1 2 1 1 1 1 0 1 1 1 1 1 0 0 1 1 1 1 2 2 2 2 3
6 6 5 5 5 5 4 3 4 3 4 4 3 3 3 3 3 4 3 2 1 1 1 1 0 0 0 1 1 1 0 1 1 1 1 2 2 2 2 2 2 2 3
6 5 4 4 4 5 5 4 5 4 6 6 5 4 3 4 6 6 4 3 3 3 2 1 0 0 0 0 0 1 1 1 1 1 1 2 2 2 3 3 2 2 3
5 4 4 4 4 4 5 5 4 3 4 4 5 5 4 5 6 6 5 4 3 4 2 1 0 0 0 0 0 0 1 1 1 1 1 2 2 2 2 3 3 3 3
5 5 4 4 3 3 3 4 4 5 3 2 2 4 5 6 5 6 6 4 2 2 1 1 1 1 0 0 0 1 1 1 1 1 1 2 2 2 3 3 3 4 4
4 3 3 3 3 3 3 3 3 4 3 3 3 2 4 4 4 5 6 2 2 2 1 1 1 1 1 1 1 1 1 1 1 1 1 2 2 2 3 3 4 5 5
3 5 4 3 3 3 3 3 3 3 3 3 4 4 4 3 2 3 3 2 2 2 2 2 2 1 1 1 1 1 1 1 1 1 1 2 2 2 3 4 4 4 4
3 4 5 3 2 2 3 3 3 3 3 3 3 5 8 5 4 4 4 3 3 3 2 2 2 2 1 1 1 1 1 1 1 1 2 2 2 3 3 3 4 4 4
3 3 3 3 2 2 2 2 2 3 3 3 3 4 9 5 4 3 3 3 3 2 2 2 2 2 2 2 1 1 1 1 1 1 2 2 3 3 3 3 4 4 4
2 3 3 2 2 2 2 2 2 2 2 2 2 3 4 3 3 3 3 3 2 2 2 1 1 1 1 1 1 2 2 2 2 2 2 3 3 3 3 4 5 5 5
2 2 2 2 2 2 2 1 2 2 2 2 2 2 3 3 2 2 2 2 2 1 1 1 2 2 2 1 1 1 1 1 1 1 2 3 4 4 4 4 5 5 5
1 1 1 1 1 1 1 1 1 1 1 1 1 1 2 2 2 2 2 1 1 1 1 1 1 2 2 2 1 0 0 1 2 2 2 3 4 4 4 5 4 4 5
1 1 1 1 1 1 1 1 1 1 1 1 1 1 1 1 1 1 1 1 1 1 1 1 2 2 2 1 1 1 1 1 2 3 3 2 3 4 4 4 5 5 5
Wind_Direction
162 155 148 147 140 131 128 126 122 116 120 122 120 111 103 94 91 81 73 48 66 73 67 76 62 48 35 17 27 32 31 61 93 30 36 42 48 43 27 46 97 91 77
155 146 149 153 145 141 143 137 134 130 125 124 119 112 108 102 102 108 103 81 70 64 60 77 83 74 51 27 31 32 32 39 87 83 24 21 29 33 29 23 31 67 89
149 149 157 157 153 151 141 134 138 134 132 131 121 116 114 114 110 105 107 95 74 60 53 55 50 61 47 35 42 34 29 37 64 93 51 20 14 13 28 16 19 12 24
154 158 162 158 153 146 135 129 136 131 133 129 117 111 107 91 77 70 81 89 88 78 63 57 50 55 45 36 39 28 35 37 42 67 69 26 13 357 30 11 359 353 357
160 164 163 151 143 137 133 135 131 132 135 123 108 95 88 81 60 52 34 55 85 99 89 85 81 81 69 62 55 34 33 32 32 56 45 33 9 6 356 347 356 331 341
162 163 154 144 138 141 145 140 127 121 113 108 107 103 88 76 67 56 38 14 40 78 102 109 114 102 86 77 68 58 54 54 35 48 35 33 334 339 344 357 358 359 330
159 156 151 145 146 153 150 137 135 129 116 113 113 106 99 92 82 61 31 7 24 29 68 102 94 88 89 87 70 53 36 31 43 100 67 337 328 328 353 343 329 310 275
158 156 153 151 153 156 148 151 155 143 138 136 126 118 114 111 96 70 18 354 23 26 37 69 96 89 61 53 72 62 44 21 14 65 91 49 24 340 329 292 282 308 308
157 159 157 155 153 154 155 158 152 142 139 138 136 135 128 127 126 90 16 352 70 48 48 49 70 82 51 40 58 58 51 4 32 59 46 19 347 340 351 17 359 357 326
160 160 157 151 150 156 163 158 144 137 138 131 128 132 133 136 142 120 43 360 120 92 68 72 73 79 59 47 56 57 28 336 6 9 345 316 315 330 345 35 51 335 312
151 152 150 147 150 155 155 147 141 142 145 143 143 139 136 143 148 141 105 48 21 84 86 74 65 76 64 43 40 50 338 333 338 329 320 330 356 1 355 358 357 306 292
141 143 142 141 147 147 142 141 145 149 154 154 150 145 135 131 130 139 128 101 42 50 84 101 105 98 55 20 16 347 346 353 343 343 356 351 349 339 333 329 318 312 282
139 142 145 143 138 137 141 145 148 149 154 156 151 149 137 127 129 138 151 127 46 62 51 105 128 150 83 331 315 324 341 349 346 354 334 312 303 302 318 322 317 313 311
140 142 141 140 136 136 135 139 145 150 154 155 152 151 141 126 116 129 144 134 88 81 72 101 148 236 271 277 302 293 260 260 288 282 294 301 320 330 321 319 320 323 321
143 142 140 139 141 135 131 131 146 149 157 155 156 152 147 152 173 158 151 163 165 156 126 122 68 317 303 297 298 316 336 356 345 331 319 316 318 316 306 305 304 313 307
142 141 137 136 140 140 134 112 75 107 123 126 123 128 134 140 147 149 155 157 154 134 117 138 208 210 221 244 337 321 327 336 322 319 314 309 309 306 305 311 312 305 299
138 137 134 138 144 149 150 149 139 92 82 101 118 125 131 142 146 152 152 143 143 136 124 174 200 203 252 5 348 326 306 305 312 308 302 303 304 307 309 310 309 309 306
136 134 137 142 143 148 153 157 158 158 157 146 126 142 143 147 152 152 142 122 127 141 171 191 204 216 220 245 271 279 293 311 321 317 314 314 315 315 314 309 305 304 303
133 136 139 136 142 152 154 154 156 156 155 147 134 150 164 150 141 145 144 148 168 181 200 223 231 223 220 224 248 262 266 273 291 305 307 309 315 317 311 309 309 310 309
132 137 138 147 156 158 157 156 156 155 159 162 164 162 156 147 152 166 182 188 186 196 197 208 222 225 218 218 231 247 260 265 272 283 303 307 306 307 303 301 302 304 302
132 142 148 150 156 164 166 164 162 162 169 174 175 167 164 172 182 183 186 195 201 205 206 207 207 210 218 228 230 250 261 272 280 297 304 300 298 300 298 296 296 296 297
137 143 155 163 165 170 171 164 161 166 175 182 176 167 168 174 181 184 190 196 199 202 200 193 199 208 212 210 209 222 248 259 268 277 284 288 290 290 289 292 295 297 298
134 144 151 158 159 162 163 160 160 170 177 176 167 157 172 192 188 191 191 191 189 191 192 192 209 227 231 219 205 202 224 243 257 272 281 285 285 283 284 287 289 293 293
115 133 143 146 142 141 150 156 157 165 169 166 164 166 176 189 189 182 176 172 170 176 183 204 227 243 246 236 231 207 204 243 272 269 277 281 284 284 284 284 284 286 290
96 113 126 133 141 145 149 153 155 155 159 157 156 161 169 172 175 163 155 150 157 187 217 215 227 246 247 247 235 175 294 294 301 306 288 279 280 284 286 287 289 292 293
89 88 97 107 120 129 133 136 131 131 150 146 138 138 150 165 171 158 150 159 182 210 224 222 235 255 263 212 182 213 243 287 297 309 303 280 279 282 291 289 290 291 291